Location: Croagnes
(43.9363°N, 5.3265°E)
Time: 00:48:24
(UTC+00:00)

Meteor 1-16 Rocket - Visible Passes

Search period start: 14 June 2021 00:00
Search period end: 24 June 2021 00:00
Orbit: 790 x 907 km, 81.2° (Epoch: 13 June)

Date Brightness Start Highest point End Pass type
(mag) Time Alt. Az. Time Alt. Az. Time Alt. Az.
14 Jun 5.0 20:35:13 10° N 20:40:17 36° ENE 20:44:06 16° SE visible
14 Jun 5.5 22:18:18 10° NNW 22:23:02 30° W 22:26:05 18° SW visible
15 Jun 5.1 20:22:41 10° N 20:27:37 33° ENE 20:31:48 13° SE visible
15 Jun 5.4 22:05:37 10° NNW 22:10:28 33° W 22:13:47 17° SW visible
16 Jun 5.2 20:10:11 10° N 20:14:58 30° ENE 20:19:31 11° SE visible
16 Jun 5.3 21:52:55 10° NNW 21:57:54 36° W 22:01:30 17° SSW visible
17 Jun 5.3 19:57:40 10° N 20:02:18 27° ENE 20:06:50 10° SE visible
17 Jun 5.2 21:40:16 10° NNW 21:45:19 40° W 21:49:13 16° SSW visible
18 Jun 5.0 21:27:36 10° NNW 21:32:44 44° W 21:36:59 14° SSW visible
19 Jun 4.9 21:14:57 10° NNW 21:20:09 48° W 21:24:47 12° SSW visible
20 Jun 4.7 21:02:17 10° NNW 21:07:34 53° W 21:12:35 11° S visible
21 Jun 4.6 20:49:39 10° NNW 20:54:59 59° W 21:00:10 10° S visible
22 Jun 4.5 20:37:01 10° NNW 20:42:23 65° W 20:47:37 10° S visible
23 Jun 4.3 20:24:23 10° NNW 20:29:46 71° W 20:35:03 10° S visible
